Flag for Turkey Weather past 2 weeks in Ankara, Turkey

Now
41 °F

Passing clouds.


Feels Like: 36 °F
Forecast: 44 / 55 °F
Wind: 8 mph from Southeast

Location: Ankara / Esenboga

Current Time: Jan 31, 2015 at 6:13:15 AM

Latest Report: Jan 31, 2015 at 5:20 AM


Visibility: N/A

Pressure: 29.77 "Hg

Humidity: 70%

Dew point: 32 °F

Location of AnkaraLocation

Historic Weather in Ankara — Graph

°F

Ankara temperature yesterday

Maximum temperature yesterday: 50 °F (at 3:20 PM)
Minimum temperature yesterday: 30 °F (at 5:50 AM)
Average temperature yesterday: 39 °F

Past Weeks' High & Low Weather Summary

 TemperatureHumidityPressure
High50 °F (Jan 30, 3:20 PM)100% (Jan 16, 4:20 AM)30.42 "Hg (Jan 16, 4:20 AM)
Low19 °F (Jan 20, 4:20 AM)46% (Jan 24, 1:20 PM)29.74 "Hg (Jan 28, 5:20 AM)
Average33 °F85%30.08 "Hg
* Reported Jan 16 4:20 AM — Jan 31 4:50 AM, Ankara, Weather by CustomWeather, © 2014

Note: Actual official high and low records may vary slightly from our data, if they occured in-between our weather recording intervals... More about our weather records

Advertising

Ankara weather history for previous 24 hours

 ConditionsComfort  
Time TempWeatherWind HumidityBarometerVisibility
4:50 AM
Jan 31
39 °FPassing clouds.9 mph75%29.77 "HgN/A
4:20 AM39 °FPassing clouds.10 mph75%29.77 "HgN/A
3:50 AM39 °FPassing clouds.9 mph75%29.77 "HgN/A
3:20 AM34 °FPassing clouds.5 mph87%29.80 "HgN/A
2:50 AM34 °FPassing clouds.5 mph87%29.80 "HgN/A
2:20 AM34 °FPassing clouds.5 mph81%29.80 "HgN/A
1:50 AM37 °FPassing clouds.2 mph75%29.80 "HgN/A
1:20 AM37 °FPassing clouds.2 mph75%29.80 "HgN/A
12:50 AM32 °FPassing clouds.7 mph87%29.80 "HgN/A
12:20 AM36 °FPassing clouds.2 mph75%29.83 "HgN/A
11:50 PM
Jan 30
39 °FPassing clouds.5 mph70%29.83 "HgN/A
10:50 PM39 °FPassing clouds.3 mph70%29.83 "HgN/A
10:20 PM36 °FPassing clouds.3 mph81%29.83 "HgN/A
9:50 PM37 °FPartly cloudy.2 mph81%29.83 "HgN/A
9:20 PM36 °FPartly cloudy.5 mph81%29.80 "HgN/A
8:50 PM41 °FPartly cloudy.7 mph66%29.80 "HgN/A
8:20 PM37 °FPartly cloudy.5 mph81%29.80 "HgN/A
7:50 PM39 °FPartly cloudy.5 mph75%29.80 "HgN/A
7:20 PM41 °FPartly cloudy.8 mph76%29.80 "HgN/A
6:50 PM41 °FPartly cloudy.8 mph76%29.80 "HgN/A
6:20 PM41 °FPartly cloudy.5 mph76%29.80 "HgN/A
5:50 PM41 °FPartly cloudy.7 mph76%29.80 "HgN/A
5:20 PM43 °FPartly cloudy.7 mph71%29.77 "HgN/A
4:50 PM45 °FBroken clouds.8 mph66%29.77 "HgN/A
4:20 PM46 °FBroken clouds.10 mph62%29.77 "HgN/A
3:50 PM46 °FBroken clouds.12 mph62%29.77 "HgN/A
3:20 PM50 °FBroken clouds.15 mph50%29.77 "HgN/A
2:50 PM48 °FBroken clouds.13 mph58%29.77 "HgN/A
2:20 PM46 °FBroken clouds.15 mph62%29.77 "HgN/A
1:50 PM45 °FBroken clouds.12 mph71%29.77 "HgN/A
1:20 PM45 °FBroken clouds.10 mph66%29.80 "HgN/A
12:50 PM45 °FBroken clouds.14 mph66%29.80 "HgN/A
12:20 PM45 °FScattered clouds.9 mph66%29.80 "HgN/A
11:50 AM43 °FScattered clouds.6 mph71%29.83 "HgN/A
11:20 AM43 °FScattered clouds.8 mph71%29.83 "HgN/A
10:50 AM43 °FScattered clouds.7 mph71%29.83 "HgN/A
10:20 AM43 °FScattered clouds.2 mph71%29.83 "HgN/A
9:50 AM37 °FScattered clouds.2 mph81%29.83 "HgN/A
9:20 AM36 °FScattered clouds.3 mph87%29.83 "HgN/A
8:50 AM34 °FScattered clouds.3 mph87%29.83 "HgN/A
8:20 AM32 °FScattered clouds.3 mph93%29.83 "HgN/A
7:50 AM32 °FScattered clouds.2 mph93%29.83 "HgN/A
7:20 AM30 °FScattered clouds.3 mph93%29.80 "HgN/A
6:50 AM32 °FPassing clouds.2 mph93%29.80 "HgN/A
6:20 AM32 °FPartly cloudy.3 mph93%29.80 "HgN/A
Weather by CustomWeather, © 2014

See weather overviewHow to use our weather pages